Weather Service Report


521 
ASUS46 KPQR 191910
RWROR 

OREGON REGIONAL WEATHER ROUNDUP
NATIONAL WEATHER SERVICE PORTLAND OR
1100 AM PST SUN NOV 19 2017

NOTE: "FAIR" INDICATES FEW OR NO CLOUDS BELOW 12,000 FEET WITH
NO SIGNIFICANT WEATHER AND/OR OBSTRUCTIONS TO VISIBILITY.

ORZ001>013-192000-
NORTHWEST OREGON

  
CITY           SKY/WX    TMP DP  RH WIND       PRES   REMARKS
ASTORIA        CLOUDY    50  41  71 SE8       29.91F                  
NEWPORT        PTSUNNY   50  41  71 S14       30.03F                  
PORTLAND       CLOUDY    41  38  89 E8        30.03F                  
VANCOUVER WA   CLOUDY    42  39  89 SE7       30.03F                  
SCAPPOOSE      CLOUDY    40  38  93 SE9       30.02F WCI  34          
HILLSBORO      CLOUDY    42  37  82 CALM      30.01F                  
AURORA         PTSUNNY   40  37  89 SE6       30.04F                  
MCMINNVILLE    PTSUNNY   42  38  85 S7        30.03F                  
SALEM          PTSUNNY   45  35  68 SW15      30.02F                  
CORVALLIS      PTSUNNY   44  38  79 S14       30.03F                  
EUGENE         PTSUNNY   43  37  79 S12       30.05F                  
$$

ORZ021-028-192000-
SOUTHWEST OREGON

  
CITY           SKY/WX    TMP DP  RH WIND       PRES   REMARKS
NORTH BEND     CLOUDY    43  37  79 S9        30.05F                  
BROOKINGS      CLOUDY    48  35  60 SE8       30.12F                  
ROSEBURG       PTSUNNY   37  35  92 SE5       30.08F WCI  33          
SEXTON SUMMIT  CLOUDY    39  17  41 S14G22    30.02F WCI  31          
GRANTS PASS    CLOUDY    34  32  93 CALM      30.17F                  
MEDFORD        CLOUDY    32  32 100 CALM      30.13F FOG              
$$

ORZ014>016-041-192000-
COLUMBIA GORGE

  
CITY           SKY/WX    TMP DP  RH WIND       PRES   REMARKS
TROUTDALE      PTSUNNY   43  37  79 VRB3      30.03F                  
HOOD RIVER     CLOUDY    32  32 100 CALM      30.03F FOG              
THE DALLES     CLOUDY    35  33  92 CALM      30.05F                  
$$

ORZ029>031-041-044-049-050-061>064-502-503-505>511-192000-
EASTERN OREGON

  
CITY           SKY/WX    TMP DP  RH WIND       PRES   REMARKS
MADRAS         PTSUNNY   45  43  93 S9        30.01F                  
REDMOND        PTSUNNY   44  23  43 S9        30.00F                  
BEND           PTSUNNY   45  21  39 S14       30.01F                  
PRINEVILLE     CLOUDY    43  23  45 SE7       30.01F                  
KLAMATH FALLS  CLOUDY    33  30  88 CALM      30.11F                  
HERMISTON      CLOUDY    39  34  82 CALM      29.99F                  
PENDLETON      PTSUNNY   48  31  51 CALM      29.96F                  
JOHN DAY       MOSUNNY   41  25  52 E7        30.04F                  
MEACHAM        PTSUNNY   41  24  51 CALM      29.97F                  
LA GRANDE      PTSUNNY   44  22  41 S22G29    30.05F                  
BAKER CITY     PTSUNNY   42  21  43 E21G26    30.09F                  
BURNS          MOSUNNY   37  25  61 NE5       30.10F WCI  33          
ROME             N/A     40  26  57 NE3       30.12F                  
ONTARIO        SUNNY     39  29  67 CALM      30.21F                  
$$
  

Return to Home page


Western Regional Climate Center, wrcc@dri.edu